Regional Weather Roundup
Issued by NWS

Home | Current Version | Previous Version | Text Only | Print | Product List | Glossary Off
Versions: 1 2 3 4 5 6 7 8 9 10 11 12 13 14 15 16 17 18 19 20 21 22 23 24 25 26 27 28 29 30 31 32 33 34 35 36 37 38 39 40 41 42 43 44 45 46 47 48 49 50

000
ASUS45 KBOU 280310
RWRCO

WEATHER ROUNDUP FOR COLORADO
NATIONAL WEATHER SERVICE DENVER/BOULDER CO
900 PM MDT MON JUL 27 2015

NOTE: "FAIR" INDICATES FEW OR NO CLOUDS BELOW 12000 FEET WITH NO
SIGNIFICANT WEATHER AND/OR OBSTRUCTIONS TO VISIBILITY.

COZ001>005-013-030-031-280400-
...NORTHWEST COLORADO...

CITY           SKY/WX    TMP DP  RH WIND       PRES   REMARKS
CRAIG          CLEAR     71  38  29 NW9       30.06R
HAYDEN         CLEAR     72  34  25 NW12      30.05R
MEEKER         CLEAR     76  29  17 W15       30.07R
MOUNT WERNER   NOT AVBL
STEAMBOAT SPGS CLEAR     72  26  18 CALM      30.05S
WALDEN         CLEAR     64  23  20 SW12      30.15S
$$

COZ006>008-011-280400-
...WEST CENTRAL VALLEYS...

CITY           SKY/WX    TMP DP  RH WIND       PRES   REMARKS
GRAND JUNCTION CLEAR     81  27  14 S7        29.92R
MONTROSE       CLEAR     78  32  18 S7        30.04R
EAGLE          CLEAR     75  34  22 SW12      30.08R
RIFLE          CLEAR     79  25  13 W7        29.97R
DELTA          CLEAR     86  22   9 W10       29.97R
NUCLA          CLEAR     81  21  11 SW9       30.08R
$$

COZ017>023-064>068-280400-
...SOUTHWEST COLORADO...

CITY           SKY/WX    TMP DP  RH WIND       PRES   REMARKS
DURANGO        CLEAR     76  29  17 W9        30.12R
CORTEZ         CLEAR     68  42  38 CALM      30.06R
PAGOSA SPRINGS CLEAR     66  38  34 CALM      30.22R
TELLURIDE      PTCLDY    67  26  21 W5        30.35R
WOLF CREEK PAS NOT AVBL
$$

COZ009-010-012-014-032>034-037-058>063-280400-
...CENTRAL COLORADO...

CITY           SKY/WX    TMP DP  RH WIND       PRES   REMARKS
ASPEN          CLEAR     66  36  32 S12       30.17R
BUENA VISTA    CLEAR     67  31  26 W6        30.19R
COPPER MTN     CLEAR     55  23  28 SW15G25   30.53R
BERTHOUD PASS  FAIR      48  37  66 W23G38    30.56R
COTTONWOOD PAS CLEAR     66  23  19 W5        30.35R
GUNNISON       CLEAR     72  27  18 W9        30.22R
KREMMLING      PTCLDY    72  27  18 CALM      30.12R
LEADVILLE      CLEAR     58  28  32 NW6       30.34R
MONARCH PASS   PTCLDY    54  32  43 W36G43    30.60R
SALIDA         CLEAR     70  34  26 W12       30.22R
SUNLIGHT       CLEAR     55  28  35 CALM      30.44R
WILKERSON PASS CLEAR     57  27  30 W9G18     30.46R
$$

COZ069>075-280400-
...SAN LUIS VALLEY/SANGRE DE CRISTO MOUNTAINS...

CITY           SKY/WX    TMP DP  RH WIND       PRES   REMARKS
ALAMOSA        CLEAR     63  42  46 SW7       30.18R
LA VETA PASS   CLEAR     59  39  47 MISG      30.38R
SAGUACHE       MOCLDY    63  50  63 N5        30.21R
$$

COZ035-036-038>040-280400-
...NORTHERN COLORADO FRONT RANGE...

CITY           SKY/WX    TMP DP  RH WIND       PRES   REMARKS
DENVER INTL AP PTCLDY    87  38  17 W12       29.88R
DMNS CITY PARK   N/A     84  36  18 N3        29.89R
AURORA         PTCLDY    80  48  33 S7        29.91R
FRONT RANGE AP MOCLDY    81  46  30 S9        29.89R
ERIE MUNI ARPT PTCLDY    82  32  16 W7        29.85R
BOULDER MUN AP PTCLDY    84  34  16 W8        29.89R
CENTENNIAL     PTCLDY    81  47  30 SW12      29.92R
BROOMFIELD     PTCLDY    82  32  16 SW9       29.91R
FORT COLLINS   CLEAR     84  41  21 SW9       29.84R
LONGMONT       CLEAR     84  35  17 W12       29.88R
$$

COZ041-046-047-076>085-087-088-280400-
...PIKES PEAK/PALMER DIVIDE AND SOUTHERN FOOTHILLS...

CITY           SKY/WX    TMP DP  RH WIND       PRES   REMARKS
COLO. SPRINGS  PTCLDY    77  47  34 S6        30.00R
A. F. ACADEMY  CLEAR     75  46  35 CALM      30.02R
ELLICOTT       CLEAR    N/A N/A N/A SW10      29.99R
FALCON         CLEAR     70  50  49 SW8       30.06R
FORT CARSON    CLEAR     78  49  35 W8        29.96R
LIMON          PTCLDY    77  51  40 S10       29.91R
MONUMENT HILL  CLEAR     72  45  37 SW10      30.06R
TRINIDAD       PTCLDY    78  46  32 SW10      30.00R
$$

COZ042>045-048>051-090-091-280400-
...NORTHEAST COLORADO...

CITY           SKY/WX    TMP DP  RH WIND       PRES   REMARKS
GREELEY ARPT   CLEAR     75  54  46 N7        29.83R
AKRON            N/A    N/A N/A N/A MISG      29.81R
BURLINGTON     PTCLDY    77  60  55 S13       29.82R
WRAY           CLEAR     84  65  53 SE12      29.76R
STERLING       NOT AVBL
HOLYOKE        CLEAR     81  68  65 SE8       29.76R
FORT MORGAN    MOCLDY    78  52  39 SW5       29.80R
$$

COZ086-089-092>099-280400-
...SOUTHEAST COLORADO...

CITY           SKY/WX    TMP DP  RH WIND       PRES   REMARKS
PUEBLO         CLEAR     84  50  30 SW5       29.86R
LA JUNTA       PTCLDY    81  60  48 SW6       29.84R
LAMAR          PTCLDY    88  59  37 S17G26    29.79R
SPRINGFIELD      N/A     81  61  50 S23G31    29.91R
$$


USA.gov is the U.S. government's official web portal to all federal, state and local government web resources and services.